Overview Statistics Trail Chart Weather Telemetry Raw packets
 

This is the latest recevied weather packets stored in our database for station/object N0HOT. If no packets are shown the sender has not sent any weather packets the latest 10 day(s).

<< 95 96 97 98 99 100 101 >>
Time Temp. Humidity Pressure Rain* Wind** Luminosity Snow
1787942385 27.78° C 41% 1019.5 hPa 0 mm - 699 W/m² -
1787942080 27.78° C 39% 1019.5 hPa 0 mm - 630 W/m² -
1787941776 27.22° C 43% 1019.5 hPa 0 mm - 622 W/m² -
1787941474 27.22° C 40% 1019.8 hPa 0 mm - 680 W/m² -
1787941174 27.22° C 42% 1019.8 hPa 0 mm - 600 W/m² -
1787940868 27.22° C 43% 1019.5 hPa 0 mm - 693 W/m² -
1787940567 27.22° C 42% 1019.8 hPa 0 mm - 636 W/m² -
1787940261 27.22° C 45% 1019.8 hPa 0 mm - 643 W/m² -
1787939955 27.22° C 42% 1019.8 hPa 0 mm - 680 W/m² -
1787939654 27.22° C 41% 1019.8 hPa 0 mm - 664 W/m² -
1787939349 27.22° C 44% 1019.8 hPa 0 mm - 680 W/m² -
1787939044 27.22° C 43% 1020.1 hPa 0 mm - 670 W/m² -
1787938743 27.22° C 46% 1020.1 hPa 0 mm - 651 W/m² -
1787938440 26.67° C 47% 1020.1 hPa 0 mm - 649 W/m² -
1787938134 26.67° C 46% 1020.1 hPa 0 mm - 613 W/m² -
1787937829 26.67° C 45% 1020.1 hPa 0 mm - 649 W/m² -
1787937526 26.67° C 44% 1020.1 hPa 0 mm - 730 W/m² -
1787937222 26.67° C 45% 1020.1 hPa 0 mm - 738 W/m² -
1787936916 26.11° C 45% 1020.5 hPa 0 mm - 710 W/m² -
1787936615 26.11° C 45% 1020.1 hPa 0 mm - 727 W/m² -
1787936314 26.11° C 49% 1020.1 hPa 0 mm - 752 W/m² -
1787936011 25.56° C 49% 1020.5 hPa 0 mm - 701 W/m² -
1787935706 25.56° C 51% 1020.5 hPa 0 mm - 720 W/m² -
1787935402 25° C 52% 1020.5 hPa 0 mm - 706 W/m² -
1787935098 25° C 56% 1020.5 hPa 0 mm - 637 W/m² -

* Rain latest hour (hover to see other rain measurements)
** Current wind speed in m/s (hover to see current wind gust speed)